Regional Weather Roundup
Issued by NWS Upton, NY

Current Version | Previous Version | Text Only | Print | Product List | Glossary Off
Versions: 1 2 3 4 5 6 7 8 9 10 11 12 13 14 15 16 17 18 19 20 21 22 23 24 25 26 27 28 29 30 31 32 33 34 35 36 37 38 39 40 41 42 43 44 45 46 47 48 49 50
000 ASUS41 KOKX 251018 RWROKX REGIONAL WEATHER ROUNDUP NATIONAL WEATHER SERVICE NEW YORK NY 600 AM EDT MON MAY 25 2015 NOTE: "FAIR" INDICATES FEW OR NO CLOUDS BELOW 12,000 FEET WITH NO SIGNIFICANT WEATHER AND/OR OBSTRUCTIONS TO VISIBILITY. NYZ071-072-176-178-NJZ106-104-251100- NEW YORK CITY METRO AREA CITY SKY/WX TMP DP RH WIND PRES REMARKS CENTRAL PARK PTCLDY 66 53 63 VRB3 30.29S LAGUARDIA APRT MOCLDY 65 53 65 S7 30.26S KENNEDY INTL MOCLDY 58 54 86 S5 30.28S NEWARK/LIBERTY MOCLDY 62 54 74 SE5 30.26S BRNX BOT. GARD N/A 64 54 68 W3 30.26S TETERBORO PTCLDY 62 52 69 S3 30.25S $$ NYZ177-179-078>081-251100- LONG ISLAND NEW YORK CITY SKY/WX TMP DP RH WIND PRES REMARKS FARMINGDALE PTCLDY 56 53 90 CALM 30.28S ISLIP MOCLDY 57 54 89 SW6 30.27R SHIRLEY PTCLDY 58 54 86 SW3 30.29R WESTHAMPTON PTCLDY 57 54 89 SW5 30.30R MONTAUK POINT N/A 59 53 80 SW5 30.30R $$ NYZ052-065-067-251100- HUDSON VALLEY CITY SKY/WX TMP DP RH WIND PRES REMARKS WHITE PLAINS PTCLDY 62 52 69 CALM 30.26S NEWBURGH NOT AVBL MONTGOMERY CLOUDY 57 51 80 CALM 30.24S POUGHKEEPSIE CLOUDY 59 53 80 CALM 30.24R ALBANY LGT RAIN 62 47 57 S7 30.23R $$ NJZ001-105-106-008-010-013-015-019>022-104-251100- NEW JERSEY CITY SKY/WX TMP DP RH WIND PRES REMARKS NEWARK/LIBERTY MOCLDY 62 54 74 SE5 30.26S TETERBORO PTCLDY 62 52 69 S3 30.25S CALDWELL MOCLDY 62 51 67 CALM 30.26S MORRISTOWN MOCLDY 57 52 82 CALM 30.26S SOMERVILLE CLOUDY 54 49 83 CALM 30.25S SUSSEX CLOUDY 55 49 80 SW5 30.27S ANDOVER N/A 58 54 86 CALM 30.26S TRENTON CLOUDY 60 55 83 S3 30.26S MILLVILLE CLEAR 57 56 96 CALM 30.28S ATLANTIC CITY PTCLDY 60 56 86 S5 30.28F WRIGHTSTOWN MOCLDY 57 55 91 S2 30.25S TOMS RIVER PTCLDY N/A N/A N/A CALM 30.28S BELMAR PTCLDY 59 48 67 SW5 30.28S $$ PAZ047>061-062-071-251100- EASTERN PENNSYLVANIA CITY SKY/WX TMP DP RH WIND PRES REMARKS PHILADELPHIA MOCLDY 65 57 75 S6 30.27S ALLENTOWN CLOUDY 59 50 72 CALM 30.25S SCRANTON CLOUDY 63 50 62 CALM 30.23F $$ CTZ002-004>006-009-010-012-RIZ004-006-007-MAZ004-011-015-251100- SOUTHERN NEW ENGLAND IN CT CITY SKY/WX TMP DP RH WIND PRES REMARKS BRADLEY INTL CLOUDY 59 51 75 S6 30.24R HARTFORD CLOUDY 59 51 75 S5 30.25S DANBURY MOCLDY 54 50 86 CALM 30.28R WTRBRY/OXFORD CLEAR 55 48 76 S6 30.29S BRIDGEPORT PTCLDY 56 52 86 CALM 30.27R MERIDEN CLOUDY 56 52 86 S3 30.27R NEW HAVEN MOCLDY 54 51 90 CALM 30.27R CHESTER FAIR 57 54 88 SW6 30.28R GROTON MOCLDY 55 51 86 SW5 30.27R WILLIMANTIC CLOUDY 53 49 86 CALM 30.28R IN RI CITY SKY/WX TMP DP RH WIND PRES REMARKS PROVIDENCE MOCLDY 53 49 86 S3 30.27R BLOCK ISLAND PTCLDY 54 48 82 SW13 30.29R WESTERLY MOCLDY 53 50 89 CALM 30.29R IN MA CITY SKY/WX TMP DP RH WIND PRES REMARKS BOSTON MOCLDY 59 49 69 S5 30.24R WORCESTER MOCLDY 59 48 67 W12 30.26R HAZE WESTFIELD NOT AVBL PROVINCETOWN CLOUDY 55 50 82 S10 30.26R NANTUCKET PTCLDY 55 51 86 SW10 30.30R $$ ANZ330-335-338-340-345-350-353-355-251100- COASTAL MARINE OBSERVATIONS STATION/POSITION TIME SKY/WX TEMP WIND PRES VSBY WAVE AIR SEA DIR/SP/G HT/PER (UTC) (F) (DEG/KT/KT) (MB) (MI) (FT/S) NY HARB ENTRANCE 0950 58 56 210/ 6/ 6 1025.0 2/ 4 4S FIRE IS 0903 53 N/A 3/ 5 20S FIRE ISLAND 0950 57 55 220/ 10/ 12 1025.4 3/ 5 GREAT SOUTH BAY 0930 60 62 250/ 10/ 12 N/A 23SW MTP 0950 55 53 230/ 8/ 8 1025.7 3/ 6 HUDSON CANYON NOT AVBL KINGS POINT 0900 61 55 180/ 5/ 7 1024.1 CENTRAL LI SOUND 0900 56 52 220/ 4/ 4 N/A EASTERN LI SOUND 0900 53 220/ 4/ 6 N/A ROBBINS REEF 0900 62 220/ 3/ 3 1023.8 $$ >>>>>>>>>>>>>>>>>>>>>>>>>>>> KEY <<<<<<<<<<<<<<<<<<<<<<<<<<< > < > SKY/WX - SKY CONDITION/PRESENT WEATHER < > TMP - TEMPERATURE IN FAHRENHEIT < > DP - DEWPOINT IN FAHRENHEIT < > RH - RELATIVE HUMIDITY IN PERCENT < > WIND - DIRECTION AND SPEED IN MPH < > PRES - MEAN SEA LEVEL PRESSURE IN INCHES OF HG < > WCI - WIND CHILL INDEX < > VSB - VISIBILITY IN MILES < > HX - HEAT INDEX < > TC - TEMPERATURE IN CELSIUS < > VRB - VARIABLE WIND DIRECTION < > < >>>>>>>>>>>>>>>>>>>>>>>>>>>> KEY <<<<<<<<<<<<<<<<<<<<<<<<<<<

USA.gov is the U.S. government's official web portal to all federal, state and local government web resources and services.